TimeEDT,TemperatureF,Dew PointF,Humidity,Sea Level PressureIn,VisibilityMPH,Wind Direction,Wind SpeedMPH,Gust SpeedMPH,PrecipitationIn,Events,Conditions,WindDirDegrees,DateUTC
12:51 AM,79.0,66.0,64,30.09,10.0,SE,9.2,-,N/A,,Clear,140,2013-08-07 04:51:00
1:51 AM,79.0,66.0,64,30.09,10.0,SSE,8.1,-,N/A,,Clear,150,2013-08-07 05:51:00
2:51 AM,79.0,66.0,64,30.08,10.0,SE,9.2,-,N/A,,Clear,140,2013-08-07 06:51:00
3:51 AM,79.0,66.0,64,30.08,10.0,SE,8.1,-,N/A,,Clear,130,2013-08-07 07:51:00
4:51 AM,79.0,66.0,64,30.09,10.0,SE,8.1,-,N/A,,Partly Cloudy,140,2013-08-07 08:51:00
5:51 AM,79.0,66.9,66,30.09,10.0,SE,8.1,-,N/A,,Clear,130,2013-08-07 09:51:00
6:51 AM,79.0,66.9,66,30.11,10.0,SE,5.8,-,N/A,,Clear,130,2013-08-07 10:51:00
7:51 AM,82.0,68.0,62,30.12,10.0,ESE,6.9,-,N/A,,Clear,120,2013-08-07 11:51:00
8:51 AM,84.0,69.1,61,30.12,10.0,ESE,8.1,-,N/A,,Clear,110,2013-08-07 12:51:00
9:51 AM,84.0,70.0,63,30.12,10.0,ESE,8.1,-,N/A,,Clear,110,2013-08-07 13:51:00
10:51 AM,86.0,69.1,57,30.13,10.0,ESE,9.2,-,N/A,,Clear,120,2013-08-07 14:51:00
11:51 AM,86.0,70.0,59,30.13,10.0,ESE,8.1,-,N/A,,Clear,110,2013-08-07 15:51:00
12:51 PM,88.0,69.1,53,30.13,10.0,ESE,10.4,-,N/A,,Clear,120,2013-08-07 16:51:00
1:51 PM,87.1,69.1,55,30.13,10.0,ESE,10.4,-,N/A,,Clear,120,2013-08-07 17:51:00
2:51 PM,89.1,70.0,53,30.12,10.0,SE,9.2,-,N/A,,Clear,140,2013-08-07 18:51:00
3:51 PM,88.0,70.0,55,30.09,10.0,SE,11.5,-,N/A,,Clear,140,2013-08-07 19:51:00
4:51 PM,87.1,71.1,59,30.09,10.0,SE,10.4,-,N/A,,Clear,130,2013-08-07 20:51:00
5:51 PM,86.0,70.0,59,30.09,10.0,SE,10.4,-,N/A,,Clear,140,2013-08-07 21:51:00
6:51 PM,84.0,70.0,63,30.09,10.0,SE,8.1,-,N/A,,Clear,140,2013-08-07 22:51:00
7:51 PM,81.0,71.1,72,30.09,10.0,SE,6.9,-,N/A,,Clear,130,2013-08-07 23:51:00
8:51 PM,80.1,71.1,74,30.08,10.0,SE,8.1,-,N/A,,Clear,130,2013-08-08 00:51:00
9:51 PM,81.0,71.1,72,30.10,10.0,SSE,8.1,-,N/A,,Clear,150,2013-08-08 01:51:00
10:51 PM,80.1,71.1,74,30.10,10.0,SSE,8.1,-,N/A,,Clear,150,2013-08-08 02:51:00
11:51 PM,80.1,72.0,76,30.10,10.0,SSE,8.1,-,N/A,,Clear,150,2013-08-08 03:51:00